Location: Bucquoy
(50.1391°N, 2.7097°E)
Time: 00:43:29
(UTC+00:00)

IRS-1D - Pass Details

Date: 06 May 2021
Orbit: 740 x 816 km, 98.6° (Epoch: 22 June)

Event Time Altitude Azimuth Distance (km) Brightness Sun altitude
Rises 01:52:49 0° 18° (NNE) 3,325 8.3 -17.7°
Reaches altitude 10° 01:55:14 10° 24° (NNE) 2,398 7.3 -17.5°
Maximum altitude 02:00:25 52° 100° (E) 1,012 4.2 -17.0°
Enters shadow 02:04:25 17° 172° (S) 1,962 5.2 -16.6°
